Location: *
(46.4000°N, 12.6667°E)
Time: 03:55:52
(UTC+00:00)

X-37B - Pass Details

Date: 13 December 2021
Orbit: 331 x 339 km, 45.0° (Epoch: 27 January)

Event Time Altitude Azimuth Distance (km) Brightness Sun altitude
Rises 17:40:30 0° 273° (W) 2,103 5.7 -22.7°
Reaches altitude 10° 17:42:31 10° 269° (W) 1,264 4.3 -23.1°
Enters shadow 17:43:59 26° 258° (WSW) 698 2.6 -23.3°
